Regional Weather Roundup
Issued by NWS

Home | Current Version | Previous Version | Graphics & Text | Print | Product List | Glossary On
Versions: 1 2 3 4 5 6 7 8 9 10 11 12 13 14 15 16 17 18 19 20 21 22 23 24 25 26 27 28 29 30 31 32 33 34 35 36 37 38 39 40 41 42 43 44 45 46 47 48 49 50
000
ASUS43 KMKX 250411
RWRWI

WISCONSIN REGIONAL WEATHER ROUNDUP
NATIONAL WEATHER SERVICE MILWAUKEE/SULLIVAN WI
1100 PM CDT MON JUL 24 2017

NOTE: "FAIR" INDICATES FEW OR NO CLOUDS BELOW 12,000 FEET WITH NO
SIGNIFICANT WEATHER AND/OR OBSTRUCTIONS TO VISIBILITY.

WIZ001-002-006>008-014>016-023>028-250500-
NORTHWEST WISCONSIN

CITY           SKY/WX    TMP DP  RH WIND       PRES   REMARKS
SUPERIOR ARPT  NOT AVBL
ASHLAND        CLOUDY    54  54 100 CALM      30.06F FOG
HAYWARD        PTCLDY    60  56  86 CALM      30.08R
SIREN          MOCLDY    65  58  80 SE6       30.05S
CUMBERLAND     PTCLDY    61  55  82 S5        30.07F
RICE LAKE      PTCLDY    63  58  82 SE5       30.08F
CHETEK         PTCLDY    60  58  94 S5        30.08S
LADYSMITH      CLOUDY    64  58  79 CALM      30.11R
EAU CLAIRE     PTCLDY    61  58  90 CALM      30.07S
MENOMONIE      CLEAR     63  60  91 E3        30.07F
NEW RICHMOND   PTCLDY    64  58  81 SE6       30.06S
OSCEOLA        PTCLDY    65  59  80 SE8       30.06F
$$

WIZ003>005-009-010-017-018-250500-
NORTH CENTRAL WISCONSIN

CITY           SKY/WX    TMP DP  RH WIND       PRES   REMARKS
MANITOWISH WTR CLOUDY    55  55 100 CALM      30.11S
ARBOR VITAE    PTCLDY    59  56  90 CALM      30.11S
WOODRUFF       PTCLDY    59  56  90 CALM      30.11S
RHINELANDER    CLEAR     63  55  75 CALM      30.13S
EAGLE RIVER    CLEAR     59  52  78 CALM      30.12S
LAND O LAKES   CLEAR     54  53  96 CALM      30.13S
PHILLIPS       PTCLDY    59  58  95 CALM      30.10S
TOMAHAWK         N/A     56  54  92 CALM      30.12F
MEDFORD        CLOUDY    60  55  83 SE3       30.10F
MERRILL        CLOUDY    62  56  81 S5        30.12S
$$

WIZ029-030-035-036-043>047-250500-
CENTRAL WISCONSIN

CITY           SKY/WX    TMP DP  RH WIND       PRES   REMARKS
WAUSAU         CLEAR     61  53  75 E3        30.11S
MOSINEE        PTCLDY    59  54  82 E6        30.13S
MARSHFIELD     CLEAR     60  55  83 CALM      30.10F
STEVENS POINT  CLEAR     59  55  87 CALM      30.13S
WAUPACA        CLEAR     60  58  92 CALM      30.13S
WAUTOMA        CLEAR     60  58  92 CALM      30.13R
WISC RAPIDS    CLEAR     62  55  77 SE7       30.12S
CAMP DOUGLAS   CLEAR     57  57 100 E3        30.10S
$$

WIZ011>013-019>022-031-037>040-048>050-250500-
NORTHEAST WISCONSIN

CITY           SKY/WX    TMP DP  RH WIND       PRES   REMARKS
ANTIGO         CLEAR     58  52  80 CALM      30.14S
SHAWANO        CLEAR     61  56  83 CALM      30.12S
OCONTO         CLEAR     57  55  93 CALM      30.12R
STURGEON BAY     N/A     58  54  86 CALM      30.13S
GREEN BAY      CLEAR     58  57  97 W3        30.13R
MANITOWOC      CLEAR     58  50  75 NW6       30.12F
APPLETON       PTCLDY    64  43  45 E3        30.12R
CLINTONVILLE   CLEAR    N/A N/A N/A CALM      30.12F
OSHKOSH        CLEAR     62  52  69 CALM      30.12R
$$

WIZ032>034-041-042-053>061-250500-
SOUTHWEST WISCONSIN

CITY           SKY/WX    TMP DP  RH WIND       PRES   REMARKS
LA CROSSE      CLEAR     66  61  84 E3        30.08R
SPARTA         CLEAR     58  58  98 E3        30.10S
VIROQUA        CLEAR     63  60  88 CALM      30.11R
BOSCOBEL       CLEAR     60  58  92 CALM      30.10S
PRAIRIE DU CHI CLEAR     63  60  91 CALM      30.09S
PLATTEVILLE    CLEAR     64  62  91 E7        30.11S
$$

WIZ056-057-062-063-064-067-068-250500-
SOUTH CENTRAL WISCONSIN

CITY           SKY/WX    TMP DP  RH WIND       PRES   REMARKS
REEDSBURG      CLOUDY    61  61 100 CALM      30.11R
BARABOO/DELLS  CLOUDY    59  56  89 SE3       30.11S
LONE ROCK      CLEAR     62  60  93 CALM      30.10S
MINERAL POINT  CLEAR     64  61  88 E3        30.11S
MADISON        PTCLDY    61  57  87 CALM      30.12R
MIDDLETON      CLEAR     60  60 100 CALM      30.13R
WATERTOWN      CLEAR     57  56  96 E5        30.12R
MONROE         CLEAR     63  55  77 E3        30.11S
JANESVILLE     CLEAR     61  61 100 E5        30.11R
$$

WIZ051-052-058>065-066-070>072-250500-
SOUTHEAST WISCONSIN

CITY           SKY/WX    TMP DP  RH WIND       PRES   REMARKS
MILWAUKEE      CLEAR     64  56  75 NE3       30.12R
WAUKESHA       CLEAR     57  52  82 CALM      30.14R
MILWAUKEE/TIMM CLEAR     61  52  72 CALM      30.13R
RACINE         CLEAR     62  58  86 E3        30.13S
KENOSHA        CLEAR     59  56  89 E5        30.11F
FOND DU LAC    CLEAR     60  48  64 CALM      30.12R
SHEBOYGAN      CLEAR     54  54 100 W3        30.12S
WEST BEND      CLEAR     54  52  94 CALM      30.13R
JUNEAU         CLEAR     60  52  74 E3        30.13S
$$

LSZ147-162-250500-
LAKE SUPERIOR

STATION/POSITION TIME  TEMP    WIND        PRES    WAVE
                       AIR SEA DIR/SP/G            HT/PER
                 (UTC) (F)     (DEG/KT/KT) (MB)    (FT/S)
W MID LAKE BUOY  0350   57 51  120/  6/  6 1017.9F   0
DEVILS ISLAND    0400   63     140/  9/ 10 1017.4F
SAXON HARBOR     0330   59     210/  3/  4 1017.3F
$$

LMZ867-665-643>646-250500-
LAKE MICHIGAN

STATION/POSITION TIME  TEMP    WIND        PRES    WAVE
                       AIR SEA DIR/SP/G            HT/PER
                 (UTC) (F)     (DEG/KT/KT) (MB)    (FT/S)
CHAMBERS ISLAND  0340   60     130/  2/  4 1019.3S
S GREEN BAY BUOY 0400   68 72  150/  8/ 10 1019.5
N MID LAKE BUOY  0350   66 66  270/  4/  4 1020.7R   0
NORTHPORT PIER   0340   61     220/  3/  6 1020.0R
KEWAUNEE LAKESHO 0348   59     310/  3/  4 1019.1F
SHEBOYGAN LAKESH 0400   66      60/  6/  7 1019.7R
PORT WASHINGTON  0330   64     360/  3/  4 1020.7S
ATWATER BUOY     0339   67 68   30/  8/ 10 1019.8S
MILWAUKEE LAKESH 0350   66      40/  9/ 10   N/A
S MID LAKE BUOY  0350   68 70   20/ 12/ 12 1019.6R   3/ 6
KENOSHA   LAKESH 0400   67      50/ 10/ 12 1019.3
$$

TC  - TEMPERATURE IN CELSIUS
VSB - VISIBILITY IN STATUTE MILES
WCI - WIND CHILL INDEX
HX  - HEAT INDEX





USA.gov is the U.S. government's official web portal to all federal, state and local government web resources and services.